Greenville, ME

8:58 AM EST on February 26, 2017 (GMT -0500)
Greenville

Weather History for KGNR - February, 2013

Change the Weather History Date:

Wednesday, February 13, 2013

  Actual Average (KMLT) Record (KMLT)
Temperature  
Mean Temperature 25 °F -  
Max Temperature 32 °F 23 °F 47 °F (1913)
Min Temperature 18 °F 2 °F -23 °F (1911)
Degree Days  
Heating Degree Days 40    
Moisture  
Dew Point 19 °F    
Average Humidity 73    
Maximum Humidity 89    
Minimum Humidity 61    
Precipitation  
Precipitation 0.00 in - - ()
Sea Level Pressure  
Sea Level Pressure 29.71 in    
Wind  
Wind Speed 6 mph (NNW)    
Max Wind Speed 13 mph    
Max Gust Speed 24 mph    
Averages and records for this station are not official NWS values.
T = Trace of Precipitation, MM = Missing Value Source: NWS Daily Summary

Daily Weather History Graph

Daily Weather History Graph

Search for Another Location

Airport or City:

Trip Planner

Search our weather history database for the weather conditions in past years. The results will help you decide how hot, cold, wet, or windy it might be!

Date:

Astronomy

Feb. 13, 2013 Rise Set
Actual Time 6:42 AM EST 5:02 PM EST
Civil Twilight 6:12 AM EST 5:33 PM EST
Nautical Twilight 5:37 AM EST 6:08 PM EST
Astronomical Twilight 5:03 AM EST 6:42 PM EST
Moon 7:56 AM EST (2/13) 9:17 PM EST (2/13)
Length of Visible Light 11h 21m
Length of Day
10h 20m
Waxing Crescent, 13% of the Moon is Illuminated
Feb 13
Waxing Crescent
Feb 17
First Quarter
Feb 25
Full
Mar 4
Last Quarter
Mar 11
New

Hourly Weather History & Observations

Time (EST) Temp. Windchill Dew Point Humidity Pressure Visibility Wind Dir Wind Speed Gust Speed Precip Events Conditions
12:56 AM 28.9 °F 21.9 °F 23.0 °F 78% 29.67 in - Variable 6.9 mph - N/A   Unknown
1:56 AM 28.0 °F 22.8 °F 23.0 °F 81% 29.66 in - Variable 4.6 mph - N/A   Unknown
2:56 AM 28.0 °F 20.8 °F 23.0 °F 81% 29.67 in - Variable 6.9 mph - N/A   Unknown
3:56 AM 27.0 °F 21.6 °F 21.0 °F 78% 29.68 in - Variable 4.6 mph - N/A   Unknown
4:56 AM 27.0 °F 20.5 °F 21.0 °F 78% 29.68 in - Variable 5.8 mph - N/A   Unknown
5:56 AM 26.1 °F 20.5 °F 21.0 °F 81% 29.69 in - NW 4.6 mph - N/A   Unknown
6:56 AM 26.1 °F 19.4 °F 19.9 °F 78% 29.71 in - Variable 5.8 mph - N/A   Unknown
7:56 AM 26.1 °F 16.2 °F 19.0 °F 75% 29.72 in - NW 10.4 mph 20.7 mph N/A   Unknown
8:56 AM 26.1 °F 16.2 °F 19.0 °F 75% 29.74 in - NW 10.4 mph 24.2 mph N/A   Unknown
9:56 AM 28.9 °F 18.6 °F 19.0 °F 67% 29.72 in - NNW 12.7 mph 18.4 mph N/A   Unknown
10:56 AM 30.9 °F 23.5 °F 19.0 °F 61% 29.73 in - WNW 8.1 mph - N/A   Unknown
11:56 AM 32.0 °F 24.8 °F 19.9 °F 61% 29.71 in - NW 8.1 mph - N/A   Unknown
12:56 PM 30.0 °F 25.2 °F 18.0 °F 61% 29.71 in - Variable 4.6 mph 16.1 mph N/A   Unknown
1:56 PM 30.0 °F 23.2 °F 18.0 °F 61% 29.70 in - NW 6.9 mph - N/A   Unknown
2:56 PM 30.9 °F 25.2 °F 19.0 °F 61% 29.70 in - NW 5.8 mph - N/A   Unknown
3:56 PM 30.0 °F 23.2 °F 19.0 °F 64% 29.71 in - NW 6.9 mph - N/A   Unknown
4:56 PM 28.9 °F 21.9 °F 19.0 °F 67% 29.72 in - NNW 6.9 mph - N/A   Unknown
5:56 PM 28.9 °F 23.9 °F 19.0 °F 67% 29.72 in - NNW 4.6 mph - N/A   Unknown
6:56 PM 27.0 °F 21.6 °F 18.0 °F 69% 29.73 in - NNW 4.6 mph - N/A   Unknown
7:56 PM 21.9 °F - 16.0 °F 78% 29.75 in - Calm Calm - N/A   Unknown
8:56 PM 21.9 °F 17.2 °F 17.1 °F 82% 29.75 in - North 3.5 mph - N/A   Unknown
9:56 PM 21.9 °F - 17.1 °F 82% 29.74 in - Calm Calm - N/A   Unknown
10:56 PM 18.0 °F 12.7 °F 15.1 °F 88% 29.74 in - NE 3.5 mph - N/A   Unknown
11:56 PM 19.9 °F - 17.1 °F 89% 29.74 in - Calm Calm - N/A   Unknown